Stetsonville, WI

6:12 AM CST on February 11, 2016 (GMT -0600)
Taylor County

Weather History for KMDZ - June, 2013

Change the Weather History Date:

Wednesday, June 5, 2013

  Actual Average Record
Temperature  
Mean Temperature 54 °F -  
Max Temperature 57 °F 73 °F 86 °F (1968)
Min Temperature 50 °F 50 °F 33 °F (1954)
Degree Days  
Heating Degree Days 12    
Growing Degree Days 4 (Base 50)    
Moisture  
Dew Point 50 °F    
Average Humidity 91    
Maximum Humidity 94    
Minimum Humidity 82    
Precipitation  
Precipitation 0.00 in - - ()
Sea Level Pressure  
Sea Level Pressure 30.05 in    
Wind  
Wind Speed 10 mph (ESE)    
Max Wind Speed 21 mph    
Max Gust Speed 25 mph    
Visibility 7 miles    
Events Rain    
Averages and records for this station are not official NWS values.
T = Trace of Precipitation, MM = Missing Value Source: NWS Daily Summary

Daily Weather History Graph

Daily Weather History Graph

Search for Another Location

Airport or City:

Trip Planner

Search our weather history database for the weather conditions in past years. The results will help you decide how hot, cold, wet, or windy it might be!

Date:

Astronomy

Jun. 05, 2013 Rise Set
Actual Time 5:15 AM CDT 8:44 PM CDT
Civil Twilight 4:38 AM CDT 9:21 PM CDT
Nautical Twilight 3:50 AM CDT 10:10 PM CDT
Astronomical Twilight 2:47 AM CDT 11:13 PM CDT
Moon 3:26 AM CDT (6/5) 6:05 PM CDT (6/5)
Length of Visible Light 16h 42m
Length of Day
15h 29m
Waning Crescent, 8% of the Moon is Illuminated
Jun 5
Waning Crescent
Jun 8
New
Jun 16
First Quarter
Jun 23
Full
Jun 29
Last Quarter

Hourly Weather History & Observations

Time (CDT) Temp. Dew Point Humidity Pressure Visibility Wind Dir Wind Speed Gust Speed Precip Events Conditions
12:15 AM 51.8 °F 48.2 °F 88% 30.14 in 7.0 mi East 6.9 mph - N/A   Overcast
12:35 AM 51.8 °F 50.0 °F 94% 30.14 in 7.0 mi East 5.8 mph - N/A   Overcast
12:55 AM 51.8 °F 48.2 °F 88% 30.14 in 7.0 mi East 5.8 mph - N/A   Light Drizzle
1:15 AM 51.8 °F 48.2 °F 88% 30.13 in 7.0 mi East 6.9 mph - N/A   Light Drizzle
1:35 AM 51.8 °F 48.2 °F 88% 30.13 in 7.0 mi East 8.1 mph - N/A   Light Drizzle
1:55 AM 51.8 °F 48.2 °F 88% 30.13 in 7.0 mi East 9.2 mph - N/A   Drizzle
2:15 AM 50.0 °F 48.2 °F 94% 30.13 in 7.0 mi East 8.1 mph - N/A Rain Light Rain
2:35 AM 50.0 °F 48.2 °F 94% 30.12 in 7.0 mi East 8.1 mph - N/A Rain Light Rain
2:55 AM 50.0 °F 48.2 °F 94% 30.12 in 5.0 mi East 8.1 mph - N/A   Drizzle
3:15 AM 50.0 °F 48.2 °F 94% 30.11 in 2.5 mi East 9.2 mph - N/A   Heavy Drizzle
3:35 AM 50.0 °F 48.2 °F 94% 30.11 in 4.0 mi East 8.1 mph - N/A Rain Rain
3:55 AM 50.0 °F 48.2 °F 94% 30.11 in 3.0 mi ESE 8.1 mph - N/A   Drizzle
4:15 AM 50.0 °F 48.2 °F 94% 30.10 in 5.0 mi East 9.2 mph - N/A   Drizzle
4:35 AM 50.0 °F 48.2 °F 94% 30.09 in 7.0 mi East 10.4 mph - N/A   Light Drizzle
4:55 AM 50.0 °F 48.2 °F 94% 30.09 in 4.0 mi East 9.2 mph - N/A   Drizzle
5:15 AM 50.0 °F 48.2 °F 94% 30.09 in 5.0 mi East 11.5 mph - N/A   Light Drizzle
5:35 AM 50.0 °F 48.2 °F 94% 30.10 in 5.0 mi East 9.2 mph - N/A Rain Light Rain
5:55 AM 50.0 °F 48.2 °F 94% 30.12 in 3.0 mi ENE 4.6 mph - N/A Rain Heavy Rain
6:15 AM 50.0 °F 48.2 °F 94% 30.10 in 4.0 mi ESE 11.5 mph - N/A Rain Rain
6:35 AM 50.0 °F 48.2 °F 94% 30.07 in 4.0 mi ESE 17.3 mph 23.0 mph N/A Rain Heavy Rain
6:55 AM 50.0 °F 48.2 °F 94% 30.08 in 5.0 mi East 15.0 mph - N/A Rain Light Rain
7:15 AM 50.0 °F 48.2 °F 94% 30.10 in 7.0 mi East 8.1 mph - N/A   Light Drizzle
7:35 AM 51.8 °F 48.2 °F 88% 30.09 in 7.0 mi East 9.2 mph - N/A Rain Light Rain
7:55 AM 51.8 °F 48.2 °F 88% 30.06 in 5.0 mi East 10.4 mph - N/A Rain Light Rain
8:15 AM 51.8 °F 48.2 °F 88% 30.07 in 7.0 mi East 8.1 mph - N/A Rain Light Rain
8:35 AM 51.8 °F 48.2 °F 88% 30.08 in 10.0 mi ESE 8.1 mph - N/A   Overcast
8:55 AM 51.8 °F 48.2 °F 88% 30.08 in 10.0 mi ESE 10.4 mph - N/A   Overcast
9:15 AM 51.8 °F 50.0 °F 94% 30.07 in 10.0 mi ESE 10.4 mph - N/A   Overcast
9:35 AM 53.6 °F 51.8 °F 94% 30.08 in 10.0 mi ESE 11.5 mph 17.3 mph N/A   Overcast
9:55 AM 53.6 °F 51.8 °F 94% 30.07 in 10.0 mi ESE 16.1 mph 20.7 mph N/A   Overcast
10:15 AM 55.4 °F 51.8 °F 88% 30.06 in 10.0 mi ESE 17.3 mph 23.0 mph N/A   Mostly Cloudy
10:35 AM 55.4 °F 51.8 °F 88% 30.06 in 10.0 mi ESE 20.7 mph 25.3 mph N/A   Mostly Cloudy
10:55 AM 55.4 °F 51.8 °F 88% 30.06 in 10.0 mi ESE 19.6 mph 24.2 mph N/A   Mostly Cloudy
11:15 AM 55.4 °F 50.0 °F 82% 30.05 in 10.0 mi ESE 15.0 mph 24.2 mph N/A   Overcast
11:35 AM 57.2 °F 51.8 °F 82% 30.04 in 10.0 mi ESE 17.3 mph 23.0 mph N/A   Overcast
11:55 AM 55.4 °F 51.8 °F 88% 30.05 in 10.0 mi ESE 12.7 mph - N/A   Overcast
12:15 PM 55.4 °F 50.0 °F 82% 30.06 in 10.0 mi ESE 11.5 mph - N/A   Overcast
12:35 PM 53.6 °F 50.0 °F 88% 30.06 in 10.0 mi ESE 11.5 mph 16.1 mph N/A Rain Rain
12:55 PM 53.6 °F 50.0 °F 88% 30.06 in 7.0 mi East 10.4 mph - N/A Rain Light Rain
1:15 PM 51.8 °F 50.0 °F 94% 30.06 in 10.0 mi East 10.4 mph - N/A Rain Light Rain
1:35 PM 53.6 °F 50.0 °F 88% 30.06 in 5.0 mi East 9.2 mph - N/A Rain Rain
1:55 PM 51.8 °F 50.0 °F 94% 30.00 in 3.0 mi East 18.4 mph - N/A Rain Heavy Rain
2:15 PM 53.6 °F 51.8 °F 94% 30.02 in 5.0 mi East 11.5 mph - N/A Rain Light Rain
2:35 PM 53.6 °F 51.8 °F 94% 30.02 in 10.0 mi SE 11.5 mph - N/A   Overcast
2:55 PM 53.6 °F 51.8 °F 94% 30.02 in 10.0 mi ESE 9.2 mph 18.4 mph N/A Rain Light Rain
3:15 PM 53.6 °F 51.8 °F 94% 29.98 in 3.0 mi ESE 16.1 mph 23.0 mph N/A Rain Heavy Rain
3:35 PM 53.6 °F 51.8 °F 94% 29.99 in 5.0 mi ESE 5.8 mph - N/A Rain Light Rain
3:55 PM 55.4 °F 51.8 °F 88% 30.01 in 10.0 mi SSE 4.6 mph - N/A   Overcast
4:15 PM 55.4 °F 51.8 °F 88% 29.99 in 10.0 mi ESE 13.8 mph 21.9 mph N/A   Overcast
4:35 PM 55.4 °F 51.8 °F 88% 29.98 in 10.0 mi ESE 11.5 mph - N/A   Overcast
4:55 PM 55.4 °F 51.8 °F 88% 29.98 in 10.0 mi ESE 9.2 mph - N/A   Overcast
5:15 PM 55.4 °F 51.8 °F 88% 29.97 in 7.0 mi ESE 10.4 mph - N/A   Overcast
5:35 PM 55.4 °F 51.8 °F 88% 29.97 in 10.0 mi ESE 12.7 mph - N/A   Drizzle
5:55 PM 55.4 °F 51.8 °F 88% 29.96 in 10.0 mi ESE 10.4 mph - N/A   Overcast
6:15 PM 55.4 °F 51.8 °F 88% 29.96 in 10.0 mi ESE 13.8 mph - N/A   Overcast
6:35 PM 53.6 °F 51.8 °F 94% 29.97 in 10.0 mi SE 13.8 mph 20.7 mph N/A   Overcast
6:55 PM 53.6 °F 51.8 °F 94% 29.97 in 2.5 mi SE 11.5 mph - N/A Rain Rain
7:15 PM 53.6 °F 51.8 °F 94% 29.97 in 5.0 mi SE 11.5 mph 17.3 mph N/A Rain Light Rain
7:35 PM 53.6 °F 51.8 °F 94% 29.98 in 7.0 mi ESE 6.9 mph 18.4 mph N/A Rain Light Rain
7:55 PM 53.6 °F 50.0 °F 88% 29.99 in 7.0 mi ESE 8.1 mph - N/A Rain Light Rain
8:15 PM 51.8 °F 48.2 °F 88% 29.99 in 7.0 mi ESE 11.5 mph 19.6 mph N/A Rain Light Rain
8:35 PM 51.8 °F 48.2 °F 88% 30.00 in 5.0 mi ESE 9.2 mph - N/A Rain Light Rain
8:55 PM 51.8 °F 48.2 °F 88% 30.00 in 7.0 mi ESE 8.1 mph - N/A   Light Drizzle
9:15 PM 51.8 °F 48.2 °F 88% 30.01 in 4.0 mi ENE 5.8 mph - N/A Rain Heavy Rain
9:35 PM 51.8 °F 48.2 °F 88% 30.01 in 7.0 mi East 8.1 mph - N/A Rain Light Rain
9:55 PM 50.0 °F 48.2 °F 94% 30.01 in 7.0 mi East 10.4 mph - N/A   Drizzle
10:15 PM 50.0 °F 48.2 °F 94% 30.01 in 7.0 mi East 11.5 mph - N/A   Drizzle
10:35 PM 50.0 °F 48.2 °F 94% 30.01 in 10.0 mi East 10.4 mph - N/A   Light Drizzle
10:55 PM 50.0 °F 48.2 °F 94% 30.00 in 10.0 mi East 11.5 mph - N/A Rain Light Rain
11:15 PM 50.0 °F 48.2 °F 94% 29.99 in 10.0 mi East 10.4 mph - N/A   Overcast
11:35 PM 50.0 °F 48.2 °F 94% 29.99 in 10.0 mi East 10.4 mph - N/A   Overcast
11:55 PM 50.0 °F 48.2 °F 94% 29.99 in 10.0 mi East 10.4 mph - N/A   Overcast